Location: Bletchingley
(51.2333°N, 0.1000°W)
Time: 22:26:01
(UTC+00:00)

NOSS 3-1 (A) - Pass Details

Date: 18 September 2020
Orbit: 745 x 1467 km, 63.4° (Epoch: 08 October)

Event Time Altitude Azimuth Distance (km) Brightness Sun altitude
Rises 18:53:37 0° 242° (WSW) 3,328 7.2 -8.1°
Reaches altitude 10° 18:55:57 10° 247° (WSW) 2,465 6.5 -8.4°
Maximum altitude 19:01:33 56° 325° (NW) 1,116 4.2 -9.3°
Drops below altitude 10° 19:08:14 10° 43° (NE) 2,926 5.7 -10.3°
Sets 19:11:13 0° 48° (NE) 4,004 6.4 -10.7°
